AAL1551 KMIA-KMEM

Flight info

Callsign AAL1551
Flight time 2h 10m
Altitude 30000
Route HURCN4 SMELZ Q116 GOOGY WASER VANZE3
Aircraft A320/M-SDE3FGHIRWY/LB1

Departure

Time 2026-05-05 14:57
Airport Miami International Airport (KMIA)

Arrival

Time 2026-05-05 17:07
Airport Memphis International Airport (KMEM)
Time Latitude Longitude Altitude Speed Heading
2026-05-05 14:06 25.79826 -80.28264 15 ft 0 kts 177°
2026-05-05 14:46 25.79844 -80.28265 16 ft 4 kts 176°
2026-05-05 14:46 25.79870 -80.28263 16 ft 4 kts 203°
2026-05-05 14:46 25.79889 -80.28247 17 ft 4 kts 252°
2026-05-05 14:46 25.79892 -80.28233 16 ft 1 kts 266°
2026-05-05 14:47 25.79892 -80.28232 16 ft 0 kts 266°
2026-05-05 14:50 25.79891 -80.28252 18 ft 8 kts 266°
2026-05-05 14:50 25.79941 -80.28317 15 ft 18 kts 356°
2026-05-05 14:50 25.80031 -80.28353 15 ft 6 kts 264°
2026-05-05 14:51 25.80032 -80.28415 15 ft 13 kts 269°
2026-05-05 14:51 25.80027 -80.28489 16 ft 14 kts 269°
2026-05-05 14:51 25.80026 -80.28596 19 ft 15 kts 269°
2026-05-05 14:51 25.80021 -80.28722 22 ft 18 kts 267°
2026-05-05 14:52 25.80013 -80.28882 21 ft 24 kts 267°
2026-05-05 14:52 25.80001 -80.29132 21 ft 25 kts 266°
2026-05-05 14:52 25.79994 -80.29327 19 ft 27 kts 269°
2026-05-05 14:52 25.79989 -80.29474 14 ft 29 kts 268°
2026-05-05 14:53 25.79978 -80.29703 14 ft 29 kts 268°
2026-05-05 14:53 25.79971 -80.29882 12 ft 13 kts 267°
2026-05-05 14:53 25.79972 -80.29938 11 ft 9 kts 280°
2026-05-05 14:53 25.79976 -80.29954 11 ft 0 kts 284°
2026-05-05 14:55 25.79976 -80.29957 11 ft 3 kts 284°
2026-05-05 14:55 25.79989 -80.30009 11 ft 11 kts 285°
2026-05-05 14:55 25.80025 -80.30111 14 ft 16 kts 315°
2026-05-05 14:55 25.80074 -80.30050 13 ft 10 kts 86°
2026-05-05 14:56 25.80075 -80.30041 13 ft 0 kts 86°
2026-05-05 14:56 25.80080 -80.29909 12 ft 52 kts 87°
2026-05-05 14:57 25.80108 -80.29259 22 ft 114 kts 87°
2026-05-05 14:57 25.80152 -80.28179 15 ft 165 kts 87°
2026-05-05 14:57 25.80229 -80.26904 568 ft 161 kts 83°
2026-05-05 14:57 25.80306 -80.25655 1142 ft 163 kts 84°
2026-05-05 14:58 25.80361 -80.24394 1726 ft 165 kts 85°
2026-05-05 14:58 25.80414 -80.23054 2014 ft 185 kts 85°
2026-05-05 14:58 25.80473 -80.21545 2264 ft 207 kts 85°
2026-05-05 14:58 25.80535 -80.19855 2533 ft 232 kts 86°
2026-05-05 14:59 25.80641 -80.17983 2905 ft 254 kts 77°
2026-05-05 14:59 25.81492 -80.16262 3466 ft 261 kts 39°
2026-05-05 14:59 25.83119 -80.15376 4128 ft 266 kts
2026-05-05 14:59 25.84970 -80.15197 4889 ft 270 kts 358°
2026-05-05 15:00 25.86860 -80.15279 5652 ft 274 kts 355°
2026-05-05 15:00 25.88149 -80.15369 6180 ft 276 kts 354°
2026-05-05 15:00 25.90625 -80.16025 7171 ft 278 kts 335°
2026-05-05 15:00 25.92433 -80.16811 7920 ft 281 kts 338°
2026-05-05 15:01 25.94292 -80.17508 8677 ft 283 kts 340°
2026-05-05 15:01 25.96183 -80.18180 9429 ft 286 kts 336°
2026-05-05 15:01 25.97924 -80.19227 10121 ft 285 kts 319°
2026-05-05 15:01 25.99326 -80.20801 10561 ft 295 kts 303°
2026-05-05 15:02 26.00287 -80.22884 10693 ft 315 kts 290°
2026-05-05 15:02 26.01112 -80.25229 10815 ft 336 kts 290°
2026-05-05 15:02 26.01993 -80.27718 10961 ft 354 kts 290°
2026-05-05 15:02 26.02916 -80.30303 11398 ft 362 kts 291°
2026-05-05 15:03 26.03851 -80.32905 12008 ft 364 kts 291°
2026-05-05 15:03 26.04798 -80.35531 12627 ft 366 kts 291°
2026-05-05 15:03 26.05749 -80.38167 13241 ft 368 kts 291°
2026-05-05 15:03 26.06707 -80.40817 13839 ft 370 kts 291°
2026-05-05 15:04 26.07670 -80.43483 14369 ft 372 kts 291°
2026-05-05 15:04 26.08635 -80.46154 14900 ft 374 kts 291°
2026-05-05 15:04 26.09606 -80.48845 15433 ft 375 kts 291°
2026-05-05 15:04 26.10579 -80.51548 15960 ft 377 kts 291°
2026-05-05 15:05 26.12893 -80.56798 16991 ft 382 kts 305°
2026-05-05 15:05 26.14666 -80.58961 17497 ft 386 kts 316°
2026-05-05 15:05 26.16869 -80.60697 18006 ft 391 kts 328°
2026-05-05 15:06 26.19359 -80.61970 18482 ft 395 kts 333°
2026-05-05 15:06 26.21893 -80.63177 18890 ft 397 kts 333°
2026-05-05 15:06 26.24433 -80.64393 19290 ft 398 kts 333°
2026-05-05 15:06 26.26978 -80.65612 19690 ft 400 kts 333°
2026-05-05 15:07 26.29541 -80.66843 20075 ft 402 kts 333°
2026-05-05 15:07 26.32114 -80.68083 20458 ft 403 kts 333°
2026-05-05 15:07 26.34693 -80.69324 20841 ft 404 kts 333°
2026-05-05 15:07 26.37282 -80.70568 21205 ft 406 kts 332°
2026-05-05 15:08 26.39749 -80.72064 21537 ft 403 kts 323°
2026-05-05 15:08 26.41934 -80.74014 21891 ft 401 kts 314°
2026-05-05 15:08 26.43849 -80.76276 22214 ft 402 kts 311°
2026-05-05 15:08 26.45748 -80.78572 22560 ft 403 kts 311°
2026-05-05 15:09 26.47652 -80.80878 22878 ft 404 kts 311°
2026-05-05 15:09 26.49561 -80.83192 23182 ft 406 kts 311°
2026-05-05 15:09 26.51451 -80.85483 23480 ft 407 kts 311°
2026-05-05 15:09 26.53372 -80.87812 23746 ft 408 kts 311°
2026-05-05 15:10 26.55303 -80.90151 23981 ft 410 kts 311°
2026-05-05 15:10 26.57241 -80.92496 24198 ft 412 kts 310°
2026-05-05 15:10 26.59187 -80.94852 24461 ft 413 kts 311°
2026-05-05 15:10 26.61128 -80.97205 24725 ft 413 kts 311°
2026-05-05 15:11 26.63078 -80.99577 24963 ft 414 kts 311°
2026-05-05 15:11 26.65028 -81.01950 25194 ft 415 kts 311°
2026-05-05 15:11 26.66985 -81.04327 25418 ft 416 kts 311°
2026-05-05 15:11 26.68949 -81.06708 25635 ft 417 kts 311°
2026-05-05 15:12 26.70917 -81.09097 25840 ft 418 kts 311°
2026-05-05 15:12 26.72883 -81.11494 26045 ft 419 kts 311°
2026-05-05 15:12 26.74855 -81.13901 26251 ft 420 kts 311°
2026-05-05 15:12 26.76834 -81.16316 26448 ft 421 kts 311°
2026-05-05 15:13 26.78818 -81.18735 26647 ft 422 kts 311°
2026-05-05 15:13 26.80805 -81.21156 26833 ft 423 kts 311°
2026-05-05 15:13 26.82793 -81.23582 27071 ft 422 kts 311°
2026-05-05 15:13 26.84775 -81.26003 27339 ft 421 kts 311°
2026-05-05 15:14 26.86754 -81.28419 27579 ft 420 kts 311°
2026-05-05 15:14 26.88727 -81.30829 27869 ft 419 kts 311°
2026-05-05 15:14 26.90665 -81.33199 28177 ft 417 kts 312°
2026-05-05 15:14 26.92624 -81.35592 28471 ft 416 kts 311°
2026-05-05 15:15 26.94576 -81.37981 28757 ft 415 kts 311°
2026-05-05 15:15 26.96523 -81.40365 29056 ft 413 kts 312°
2026-05-05 15:15 26.98458 -81.42734 29346 ft 412 kts 312°
2026-05-05 15:15 27.00389 -81.45101 29641 ft 411 kts 312°
2026-05-05 15:16 27.02316 -81.47466 29935 ft 410 kts 312°
2026-05-05 15:16 27.04286 -81.49780 30051 ft 411 kts 316°
2026-05-05 15:16 27.06509 -81.51809 30074 ft 413 kts 323°
2026-05-05 15:17 27.11318 -81.55365 30071 ft 414 kts 324°
2026-05-05 15:17 27.16162 -81.58875 30077 ft 415 kts 325°
2026-05-05 15:18 27.21023 -81.62367 30068 ft 414 kts 325°
2026-05-05 15:18 27.25875 -81.65871 30061 ft 414 kts 325°
2026-05-05 15:19 27.30715 -81.69376 30073 ft 413 kts 325°
2026-05-05 15:19 27.35508 -81.72848 30079 ft 412 kts 325°
2026-05-05 15:20 27.40332 -81.76340 30080 ft 413 kts 325°
2026-05-05 15:20 27.45164 -81.79839 30077 ft 413 kts 326°
2026-05-05 15:21 27.50378 -81.82581 30075 ft 415 kts 333°
2026-05-05 15:21 27.55680 -81.85153 30072 ft 415 kts 333°
2026-05-05 15:22 27.60976 -81.87734 30075 ft 414 kts 333°
2026-05-05 15:22 27.66233 -81.90303 30078 ft 414 kts 333°
2026-05-05 15:23 27.71524 -81.92899 30082 ft 414 kts 333°
2026-05-05 15:23 27.76819 -81.95486 30084 ft 415 kts 333°
2026-05-05 15:24 27.82122 -81.98078 30090 ft 415 kts 333°
2026-05-05 15:24 27.87423 -82.00667 30123 ft 415 kts 333°
2026-05-05 15:25 27.92722 -82.03268 30114 ft 415 kts 333°
2026-05-05 15:25 27.98022 -82.05879 30111 ft 416 kts 333°
2026-05-05 15:26 28.03331 -82.08489 30109 ft 416 kts 333°
2026-05-05 15:26 28.08582 -82.11225 30107 ft 413 kts 326°
2026-05-05 15:27 28.13292 -82.14908 30102 ft 411 kts 322°
2026-05-05 15:27 28.17977 -82.18654 30131 ft 411 kts 322°
2026-05-05 15:28 28.22649 -82.22384 30125 ft 411 kts 322°
2026-05-05 15:28 28.27328 -82.26113 30115 ft 411 kts 322°
2026-05-05 15:29 28.31997 -82.29844 30103 ft 410 kts 322°
2026-05-05 15:29 28.36657 -82.33580 30101 ft 410 kts 322°
2026-05-05 15:30 28.41285 -82.37288 30092 ft 409 kts 322°
2026-05-05 15:30 28.45931 -82.41021 30119 ft 409 kts 322°
2026-05-05 15:31 28.50574 -82.44749 30118 ft 408 kts 322°
2026-05-05 15:31 28.55208 -82.48478 30119 ft 408 kts 322°
2026-05-05 15:32 28.59839 -82.52208 30098 ft 408 kts 322°
2026-05-05 15:32 28.64469 -82.55938 30098 ft 408 kts 322°
2026-05-05 15:33 28.69095 -82.59680 30093 ft 408 kts 322°
2026-05-05 15:33 28.73716 -82.63423 30096 ft 407 kts 322°
2026-05-05 15:34 28.78313 -82.67141 30127 ft 408 kts 322°
2026-05-05 15:34 28.82941 -82.70881 30138 ft 408 kts 322°
2026-05-05 15:35 28.87567 -82.74633 30131 ft 408 kts 322°
2026-05-05 15:35 28.92193 -82.78389 30099 ft 408 kts 322°
2026-05-05 15:36 28.96811 -82.82149 30103 ft 407 kts 322°
2026-05-05 15:36 29.01418 -82.85900 30105 ft 406 kts 322°
2026-05-05 15:37 29.06029 -82.89645 30105 ft 407 kts 322°
2026-05-05 15:37 29.10608 -82.93372 30128 ft 407 kts 322°
2026-05-05 15:38 29.15216 -82.97130 30124 ft 406 kts 322°
2026-05-05 15:38 29.19807 -83.00884 30119 ft 405 kts 322°
2026-05-05 15:39 29.23621 -83.04007 30116 ft 405 kts 322°
2026-05-05 15:39 29.28204 -83.07765 30115 ft 405 kts 322°
2026-05-05 15:40 29.32786 -83.11522 30103 ft 405 kts 322°
2026-05-05 15:40 29.37367 -83.15279 30131 ft 405 kts 322°
2026-05-05 15:41 29.41943 -83.19037 30101 ft 404 kts 322°
2026-05-05 15:41 29.46515 -83.22796 30105 ft 404 kts 322°
2026-05-05 15:42 29.51057 -83.26546 30102 ft 404 kts 322°
2026-05-05 15:42 29.55656 -83.30333 30105 ft 404 kts 322°
2026-05-05 15:43 29.60196 -83.34081 30100 ft 405 kts 322°
2026-05-05 15:43 29.64769 -83.37862 30108 ft 405 kts 322°
2026-05-05 15:44 29.69352 -83.41652 30139 ft 405 kts 322°
2026-05-05 15:44 29.73918 -83.45438 30131 ft 405 kts 322°
2026-05-05 15:45 29.78488 -83.49228 30123 ft 405 kts 322°
2026-05-05 15:45 29.83061 -83.53021 30125 ft 405 kts 322°
2026-05-05 15:46 29.87597 -83.56795 30117 ft 405 kts 321°
2026-05-05 15:46 29.92170 -83.60594 30118 ft 405 kts 322°
2026-05-05 15:47 29.96739 -83.64396 30152 ft 405 kts 321°
2026-05-05 15:47 30.01302 -83.68198 30143 ft 404 kts 321°
2026-05-05 15:48 30.05868 -83.72008 30135 ft 404 kts 321°
2026-05-05 15:48 30.10420 -83.75809 30126 ft 404 kts 321°
2026-05-05 15:49 30.14977 -83.79619 30117 ft 404 kts 321°
2026-05-05 15:49 30.19530 -83.83438 30112 ft 404 kts 321°
2026-05-05 15:50 30.24059 -83.87238 30101 ft 404 kts 321°
2026-05-05 15:50 30.28614 -83.91063 30123 ft 405 kts 321°
2026-05-05 15:51 30.33173 -83.94888 30116 ft 404 kts 321°
2026-05-05 15:51 30.37714 -83.98713 30116 ft 404 kts 321°
2026-05-05 15:52 30.42255 -84.02546 30114 ft 404 kts 321°
2026-05-05 15:52 30.46794 -84.06375 30111 ft 404 kts 321°
2026-05-05 15:53 30.51334 -84.10215 30108 ft 404 kts 321°
2026-05-05 15:53 30.55876 -84.14054 30109 ft 404 kts 321°
2026-05-05 15:54 30.60420 -84.17896 30108 ft 404 kts 321°
2026-05-05 15:54 30.64960 -84.21746 30108 ft 404 kts 321°
2026-05-05 15:55 30.69497 -84.25606 30107 ft 404 kts 321°
2026-05-05 15:55 30.74008 -84.29436 30094 ft 404 kts 320°
2026-05-05 15:56 30.78563 -84.33306 30084 ft 406 kts 320°
2026-05-05 15:56 30.83117 -84.37192 30081 ft 406 kts 320°
2026-05-05 15:57 30.87670 -84.41080 30108 ft 406 kts 321°
2026-05-05 15:57 30.92230 -84.44968 30107 ft 406 kts 321°
2026-05-05 15:58 30.96790 -84.48866 30132 ft 406 kts 320°
2026-05-05 15:58 31.01315 -84.52744 30135 ft 406 kts 320°
2026-05-05 15:59 31.05856 -84.56641 30133 ft 405 kts 320°
2026-05-05 15:59 31.10401 -84.60543 30127 ft 405 kts 320°
2026-05-05 16:00 31.14942 -84.64444 30152 ft 405 kts 320°
2026-05-05 16:00 31.19477 -84.68356 30127 ft 405 kts 320°
2026-05-05 16:01 31.24015 -84.72262 30094 ft 406 kts 320°
2026-05-05 16:01 31.28569 -84.76181 30102 ft 406 kts 320°
2026-05-05 16:02 31.33093 -84.80080 30115 ft 406 kts 320°
2026-05-05 16:02 31.37636 -84.84018 30102 ft 406 kts 320°
2026-05-05 16:03 31.42174 -84.87950 30130 ft 406 kts 320°
2026-05-05 16:03 31.46718 -84.91887 30140 ft 405 kts 320°
2026-05-05 16:04 31.51245 -84.95815 30120 ft 405 kts 320°
2026-05-05 16:04 31.55778 -84.99756 30118 ft 405 kts 320°
2026-05-05 16:05 31.60296 -85.03700 30105 ft 404 kts 320°
2026-05-05 16:05 31.64808 -85.07650 30087 ft 404 kts 320°
2026-05-05 16:06 31.69321 -85.11607 30086 ft 405 kts 319°
2026-05-05 16:06 31.73841 -85.15574 30131 ft 406 kts 320°
2026-05-05 16:07 31.78354 -85.19539 30127 ft 405 kts 320°
2026-05-05 16:07 31.82872 -85.23515 30128 ft 405 kts 320°
2026-05-05 16:08 31.87361 -85.27466 30127 ft 405 kts 320°
2026-05-05 16:08 31.91873 -85.31443 30106 ft 405 kts 320°
2026-05-05 16:09 31.96384 -85.35410 30103 ft 405 kts 320°
2026-05-05 16:09 32.00889 -85.39399 30125 ft 405 kts 320°
2026-05-05 16:10 32.05384 -85.43394 30101 ft 405 kts 319°
2026-05-05 16:10 32.09882 -85.47377 30102 ft 404 kts 319°
2026-05-05 16:11 32.14376 -85.51359 30094 ft 404 kts 319°
2026-05-05 16:12 32.23343 -85.59347 30081 ft 403 kts 319°
2026-05-05 16:13 32.34531 -85.69323 30096 ft 403 kts 319°
2026-05-05 16:13 32.38975 -85.73287 30078 ft 402 kts 320°
2026-05-05 16:14 32.47886 -85.81280 30063 ft 402 kts 319°
2026-05-05 16:15 32.56823 -85.89299 30090 ft 404 kts 319°
2026-05-05 16:16 32.65779 -85.97353 30061 ft 404 kts 319°
2026-05-05 16:17 32.72483 -86.03406 30053 ft 404 kts 319°
2026-05-05 16:18 32.79194 -86.09473 30053 ft 405 kts 319°
2026-05-05 16:19 32.85934 -86.15565 30085 ft 407 kts 319°
2026-05-05 16:19 32.92679 -86.21690 30066 ft 406 kts 319°
2026-05-05 16:20 33.01614 -86.29823 30064 ft 405 kts 319°
2026-05-05 16:22 33.12830 -86.40044 30129 ft 406 kts 319°
2026-05-05 16:23 33.21798 -86.48252 30093 ft 406 kts 319°
2026-05-05 16:23 33.28524 -86.54411 30061 ft 406 kts 319°
2026-05-05 16:24 33.33007 -86.58534 30072 ft 406 kts 319°
2026-05-05 16:25 33.39719 -86.64715 30083 ft 405 kts 319°
2026-05-05 16:25 33.46393 -86.70875 30089 ft 405 kts 319°
2026-05-05 16:26 33.55325 -86.79121 30086 ft 405 kts 319°
2026-05-05 16:27 33.59786 -86.83243 30085 ft 405 kts 319°
2026-05-05 16:27 33.64240 -86.87377 30087 ft 405 kts 319°
2026-05-05 16:28 33.68028 -86.92265 30090 ft 400 kts 301°
2026-05-05 16:28 33.70263 -86.97118 30041 ft 399 kts 298°
2026-05-05 16:29 33.73373 -87.03952 30024 ft 399 kts 298°
2026-05-05 16:29 33.75587 -87.08824 30013 ft 399 kts 298°
2026-05-05 16:30 33.78246 -87.14688 29995 ft 399 kts 298°
2026-05-05 16:30 33.80897 -87.20553 30044 ft 399 kts 298°
2026-05-05 16:31 33.83539 -87.26393 30053 ft 399 kts 298°
2026-05-05 16:31 33.86207 -87.32304 30054 ft 399 kts 298°
2026-05-05 16:32 33.88815 -87.38126 30062 ft 397 kts 298°
2026-05-05 16:32 33.91444 -87.43973 30062 ft 397 kts 298°
2026-05-05 16:33 33.94071 -87.49808 30076 ft 396 kts 298°
2026-05-05 16:33 33.96690 -87.55644 30050 ft 396 kts 298°
2026-05-05 16:34 33.99291 -87.61493 30025 ft 396 kts 298°
2026-05-05 16:34 34.01892 -87.67342 30000 ft 396 kts 298°
2026-05-05 16:35 34.04645 -87.73085 29980 ft 396 kts 301°
2026-05-05 16:35 34.07673 -87.78620 29988 ft 395 kts 303°
2026-05-05 16:36 34.10725 -87.84124 29995 ft 394 kts 302°
2026-05-05 16:36 34.13593 -87.89437 29997 ft 394 kts 302°
2026-05-05 16:37 34.16557 -87.95008 29973 ft 393 kts 302°
2026-05-05 16:37 34.19506 -88.00566 29973 ft 393 kts 301°
2026-05-05 16:38 34.22437 -88.06164 30003 ft 395 kts 301°
2026-05-05 16:38 34.25260 -88.11855 29981 ft 394 kts 300°
2026-05-05 16:39 34.28054 -88.17550 29985 ft 393 kts 300°
2026-05-05 16:39 34.30859 -88.23232 29985 ft 392 kts 300°
2026-05-05 16:40 34.33651 -88.28850 29985 ft 392 kts 300°
2026-05-05 16:40 34.36471 -88.34515 29981 ft 393 kts 300°
2026-05-05 16:41 34.39276 -88.40192 29989 ft 393 kts 300°
2026-05-05 16:41 34.42077 -88.45869 29990 ft 393 kts 300°
2026-05-05 16:42 34.44873 -88.51541 29989 ft 391 kts 300°
2026-05-05 16:42 34.47656 -88.57192 29998 ft 391 kts 300°
2026-05-05 16:43 34.50439 -88.62857 29975 ft 391 kts 300°
2026-05-05 16:43 34.53220 -88.68536 29963 ft 392 kts 300°
2026-05-05 16:44 34.54591 -88.71330 29767 ft 386 kts 300°
2026-05-05 16:44 34.55951 -88.74105 29076 ft 381 kts 299°
2026-05-05 16:44 34.57297 -88.76857 28302 ft 378 kts 299°
2026-05-05 16:44 34.58636 -88.79594 27577 ft 376 kts 299°
2026-05-05 16:45 34.59974 -88.82327 26697 ft 378 kts 298°
2026-05-05 16:45 34.61313 -88.85068 25969 ft 377 kts 298°
2026-05-05 16:45 34.62632 -88.87771 25552 ft 365 kts 298°
2026-05-05 16:45 34.63740 -88.90476 24702 ft 353 kts 289°
2026-05-05 16:46 34.64426 -88.93318 23743 ft 349 kts 284°
2026-05-05 16:46 34.65042 -88.96167 22657 ft 347 kts 284°
2026-05-05 16:46 34.65659 -88.99017 22043 ft 347 kts 284°
2026-05-05 16:46 34.66262 -89.01788 21637 ft 341 kts 284°
2026-05-05 16:47 34.66874 -89.04602 21150 ft 339 kts 284°
2026-05-05 16:47 34.67466 -89.07321 20665 ft 336 kts 284°
2026-05-05 16:47 34.68068 -89.10058 20163 ft 334 kts 284°
2026-05-05 16:47 34.68688 -89.12774 19676 ft 333 kts 285°
2026-05-05 16:48 34.69320 -89.15471 19194 ft 331 kts 285°
2026-05-05 16:48 34.69951 -89.18152 18684 ft 327 kts 285°
2026-05-05 16:48 34.70571 -89.20794 17807 ft 324 kts 284°
2026-05-05 16:48 34.71182 -89.23419 16871 ft 322 kts 284°
2026-05-05 16:49 34.71787 -89.26029 16046 ft 319 kts 283°
2026-05-05 16:49 34.72379 -89.28627 15747 ft 318 kts 283°
2026-05-05 16:49 34.72956 -89.31228 15497 ft 318 kts 282°
2026-05-05 16:49 34.73524 -89.33821 15236 ft 317 kts 282°
2026-05-05 16:50 34.74091 -89.36409 14955 ft 316 kts 282°
2026-05-05 16:50 34.74658 -89.38993 14680 ft 315 kts 282°
2026-05-05 16:50 34.75226 -89.41564 14414 ft 315 kts 282°
2026-05-05 16:50 34.75796 -89.44132 14153 ft 314 kts 282°
2026-05-05 16:51 34.76358 -89.46662 13889 ft 314 kts 281°
2026-05-05 16:51 34.76998 -89.49237 13614 ft 315 kts 287°
2026-05-05 16:51 34.77995 -89.51586 13346 ft 319 kts 297°
2026-05-05 16:51 34.79168 -89.53883 13074 ft 318 kts 296°
2026-05-05 16:52 34.80332 -89.56171 12798 ft 317 kts 296°
2026-05-05 16:52 34.81491 -89.58453 12528 ft 316 kts 296°
2026-05-05 16:52 34.82633 -89.60703 12343 ft 306 kts 296°
2026-05-05 16:52 34.83714 -89.62826 12095 ft 287 kts 296°
2026-05-05 16:53 34.84746 -89.64864 11674 ft 281 kts 295°
2026-05-05 16:53 34.85762 -89.66885 11422 ft 278 kts 295°
2026-05-05 16:53 34.86764 -89.68885 11193 ft 277 kts 295°
2026-05-05 16:53 34.87763 -89.70884 10957 ft 276 kts 295°
2026-05-05 16:54 34.88760 -89.72876 10716 ft 275 kts 295°
2026-05-05 16:54 34.89755 -89.74862 10476 ft 274 kts 295°
2026-05-05 16:54 34.90746 -89.76837 10245 ft 273 kts 295°
2026-05-05 16:54 34.91738 -89.78809 10009 ft 273 kts 295°
2026-05-05 16:55 34.92728 -89.80780 9870 ft 272 kts 295°
2026-05-05 16:55 34.93715 -89.82751 9732 ft 273 kts 295°
2026-05-05 16:55 34.94938 -89.84528 9469 ft 277 kts 315°
2026-05-05 16:55 34.96606 -89.85612 9329 ft 269 kts 336°
2026-05-05 16:56 34.98452 -89.85900 9213 ft 268 kts 352°
2026-05-05 16:56 35.00304 -89.85944 9100 ft 263 kts 351°
2026-05-05 16:56 35.02134 -89.85979 8700 ft 265 kts 352°
2026-05-05 16:56 35.03983 -89.86017 8297 ft 267 kts 352°
2026-05-05 16:57 35.05846 -89.86056 7896 ft 269 kts 352°
2026-05-05 16:57 35.07728 -89.86092 7509 ft 272 kts 353°
2026-05-05 16:57 35.09611 -89.86128 7118 ft 268 kts 353°
2026-05-05 16:57 35.11483 -89.86168 6737 ft 263 kts 353°
2026-05-05 16:58 35.13301 -89.86208 6364 ft 260 kts 353°
2026-05-05 16:58 35.15082 -89.86242 5955 ft 253 kts 353°
2026-05-05 16:58 35.16789 -89.86273 5573 ft 245 kts 354°
2026-05-05 16:58 35.18492 -89.86308 5238 ft 239 kts 352°
2026-05-05 16:59 35.20149 -89.86334 4898 ft 238 kts 353°
2026-05-05 16:59 35.21805 -89.86369 4521 ft 237 kts 353°
2026-05-05 16:59 35.23461 -89.86382 4037 ft 235 kts 352°
2026-05-05 16:59 35.25040 -89.86407 3950 ft 228 kts 353°
2026-05-05 17:00 35.26609 -89.86455 3947 ft 227 kts 352°
2026-05-05 17:00 35.28098 -89.86890 3955 ft 212 kts 321°
2026-05-05 17:00 35.29178 -89.87976 3955 ft 194 kts 296°
2026-05-05 17:00 35.29737 -89.89403 3954 ft 181 kts 274°
2026-05-05 17:01 35.29781 -89.90898 3961 ft 173 kts 253°
2026-05-05 17:01 35.29377 -89.92265 3963 ft 171 kts 239°
2026-05-05 17:01 35.28802 -89.93551 3958 ft 172 kts 237°
2026-05-05 17:01 35.28218 -89.94846 3970 ft 175 kts 240°
2026-05-05 17:02 35.27637 -89.96136 3950 ft 170 kts 238°
2026-05-05 17:02 35.27027 -89.97367 3953 ft 168 kts 231°
2026-05-05 17:02 35.26182 -89.98341 3944 ft 167 kts 216°
2026-05-05 17:02 35.25099 -89.98973 3842 ft 181 kts 195°
2026-05-05 17:03 35.23837 -89.99091 3654 ft 182 kts 187°
2026-05-05 17:03 35.22590 -89.99100 3551 ft 178 kts 187°
2026-05-05 17:03 35.21354 -89.99089 3404 ft 179 kts 187°
2026-05-05 17:03 35.20109 -89.99068 3195 ft 178 kts 186°
2026-05-05 17:04 35.18870 -89.99042 2976 ft 177 kts 186°
2026-05-05 17:04 35.17649 -89.99018 2747 ft 175 kts 186°
2026-05-05 17:04 35.16443 -89.98991 2520 ft 171 kts 186°
2026-05-05 17:04 35.15265 -89.98964 2326 ft 167 kts 186°
2026-05-05 17:05 35.14104 -89.98939 2119 ft 167 kts 185°
2026-05-05 17:05 35.12982 -89.98914 1895 ft 157 kts 183°
2026-05-05 17:05 35.11924 -89.98892 1685 ft 150 kts 182°
2026-05-05 17:05 35.10904 -89.98872 1478 ft 144 kts 181°
2026-05-05 17:06 35.09904 -89.98853 1292 ft 144 kts 181°
2026-05-05 17:06 35.08906 -89.98831 1103 ft 145 kts 179°
2026-05-05 17:06 35.07910 -89.98809 925 ft 144 kts 179°
2026-05-05 17:06 35.06895 -89.98787 730 ft 144 kts 175°
2026-05-05 17:07 35.05892 -89.98765 535 ft 143 kts 177°
2026-05-05 17:07 35.04912 -89.98745 356 ft 139 kts 177°
2026-05-05 17:07 35.04060 -89.98723 326 ft 90 kts 179°
2026-05-05 17:07 35.03730 -89.98716 331 ft 15 kts 179°
2026-05-05 17:08 35.03659 -89.98647 331 ft 16 kts 94°
2026-05-05 17:08 35.03658 -89.98607 332 ft 0 kts 91°
2026-05-05 17:08 35.03675 -89.98587 328 ft 9 kts 25°
2026-05-05 17:08 35.03782 -89.98586 330 ft 21 kts 357°
2026-05-05 17:09 35.03925 -89.98590 327 ft 19 kts 358°
2026-05-05 17:09 35.04048 -89.98592 329 ft 16 kts 359°
2026-05-05 17:09 35.04144 -89.98593 329 ft 12 kts
2026-05-05 17:09 35.04187 -89.98529 329 ft 11 kts 102°
2026-05-05 17:10 35.04147 -89.98462 327 ft 11 kts 96°
2026-05-05 17:10 35.04169 -89.98384 327 ft 9 kts 46°
2026-05-05 17:10 35.04204 -89.98343 328 ft 5 kts 44°
2026-05-05 17:10 35.04242 -89.98283 328 ft 10 kts 89°
2026-05-05 17:11 35.04238 -89.98233 329 ft 0 kts 94°
2026-05-05 17:11 35.04237 -89.98223 328 ft 0 kts 94°